Location: Monteux
(44.0348°N, 4.9972°E)
Time: 17:31:25
(UTC+00:00)

Meteor 1-5 Rocket - Pass Details

Date: 30 November 2020
Orbit: 788 x 916 km, 81.2° (Epoch: 23 January)

Event Time Altitude Azimuth Distance (km) Brightness Sun altitude
Rises 18:05:10 0° 350° (N) 3,550 7.5 -21.3°
Reaches altitude 10° 18:07:41 10° 351° (N) 2,594 6.7 -21.7°
Maximum altitude 18:13:37 84° 79° (E) 898 4.2 -22.8°
Drops below altitude 10° 18:19:20 10° 169° (SSE) 2,502 6.6 -23.8°
Sets 18:21:43 0° 170° (S) 3,415 7.3 -24.2°
